DELLINGR (RBLE) (43021 NORAD) Tracking and Keplerian Element Data

This shows tracking and keplerian element data for the satellite.

Feedback or suggestion? Click here.




ElementValue
Catalog43021
NameDELLINGR (RBLE)
Epoch Orbit12859
Epoch Day53.08566392
Epoch Year2020
RAAN153.2126
Inclination51.6366
Eccentricity0.000199
Argument of Perigee342.8487
Mean Anonmoly17.2442
Mean Motion15.67689631
Decay Rate0.00012899
L11 43021U 98067NJ 20053.08566392 .00012899 00000-0 12047-3 0 9995
L22 43021 51.6366 153.2126 0001990 342.8487 17.2442 15.67689631128591

Live tracking and technical data element details for DELLINGR (RBLE) (NORAD 43021). DELLINGR (RBLE) can be tracked NOW for your location showing map with azimuth and elevation plus other details from your city location.

Track the satellite on the map from your city or location and see movement details for azimuth, elevation, latitude, longitude, range, height, and movement on the map or in text.







IsCatalogInMostPopularTable: catalog: 43021, numindb: 389
Update: records affected: 1



GetName: 43021 DELLINGR (RBLE)

Hit Count: updated at: Sun, 23 Feb 2020 07:53:11 GMT